Location: Pine Creek
(45.5072°N, 110.5649°W)
Time: 17:28:51
(UTC+00:00)

Envisat - Pass Details

Date: 28 January 2022
Orbit: 764 x 765 km, 98.2° (Epoch: 19 May)

Event Time Altitude Azimuth Distance (km) Brightness Sun altitude
Rises 00:58:36 0° 222° (SW) 3,218 7.4 -6.8°
Reaches altitude 10° 01:02:49 10° 256° (WSW) 2,300 7.2 -7.5°
Maximum altitude 01:04:18 11° 274° (W) 2,219 6.7 -7.7°
Drops below altitude 10° 01:05:48 10° 291° (WNW) 2,305 6.3 -8.0°
Sets 01:10:03 0° 326° (NW) 3,239 6.5 -8.7°
